User: anonymous   Login
Location: Dayton
(39.7590°N, 84.1920°W)
Time: 15:50:04
(UTC-04:00)
Language:

Cosmos 1939 Rocket - Orbit

View from above orbital plane
View from above orbital plane
View from above satellite
View from above satellite

Ground track
Ground track

The orbit data is extracted from the following two-line orbital elements,

1 19046U 88032B   16118.77560691 -.00000106 +00000-0 -33442-5 0  9999
2 19046 097.5812 170.1984 0036870 310.3523 049.4483 15.01839416509997
Epoch (UTC): 27 April 2016 18:36:52
Eccentricity: 0.0036870
inclination: 97.5812°
perigee height: 535 km
apogee height: 587 km
right ascension of ascending node: 170.1984°
argument of perigee: 310.3523°
revolutions per day: 15.01839416
mean anomaly at epoch: 49.4483°
orbit number at epoch: 50999

The dashed part of the orbit path shows where the satellite is in the earth's shadow,  

DLR